ZL2ARL Weather Reports


time (UTC)temp
F
wind
direction
speed
knots
gust
knots
rain 1hr
in
rain 24hr
in
rain mn
in
humidity
%
barometer
mb
20260509102020 54 326 12.2 25.2 0.00 0.00 0.00 73 998.1
20260509101035 54 315 14.8 24.3 0.00 0.00 0.00 71 998.3
20260509100030 54 306 11.3 23.5 0.00 0.00 0.00 70 998.2
20260509095025 54 309 14.8 30.4 0.00 0.00 0.00 72 998.1
20260509094020 54 317 13.0 25.2 0.00 0.01 0.00 74 997.8
20260509093035 54 310 14.8 25.2 0.00 0.01 0.00 74 997.9
20260509092030 54 312 15.6 27.8 0.00 0.03 0.00 75 998.0
20260509091025 54 318 12.2 20.0 0.00 0.07 0.00 76 998.0
20260509090100 54 337 10.4 14.8 0.00 0.12 0.00 75 997.9
20260509085035 54 322 13.0 22.6 0.00 0.27 0.00 74 997.8
20260509084030 54 326 11.3 22.6 0.00 0.37 0.00 74 997.5
20260509083025 55 313 15.6 28.7 0.00 0.46 0.00 73 997.3
20260509082020 55 308 18.2 29.5 0.00 0.49 0.00 74 997.5
20260509081035 55 312 18.2 29.5 0.00 0.54 0.00 75 997.5
20260509080030 55 313 19.1 28.7 0.00 0.55 0.00 75 997.3
20260509075025 55 316 20.0 34.8 0.00 0.56 0.00 75 997.1
20260509074020 55 312 20.9 35.6 0.00 0.57 0.00 75 996.9
20260509073055 55 307 17.4 28.7 0.00 0.60 0.00 74 997.1
20260509072030 55 306 18.2 26.1 0.00 0.60 0.00 76 997.4
20260509071045 55 311 20.0 29.5 0.00 0.62 0.00 75 997.3
20260509070021 55 300 21.7 31.3 0.00 0.65 0.00 76 997.5
20260509065016 55 301 19.1 35.6 0.00 0.69 0.00 78 997.4
20260509064031 55 307 16.5 26.9 0.00 0.73 0.00 80 997.2
20260509063026 55 314 16.5 28.7 0.00 0.75 0.00 80 997.0
20260509062021 55 311 15.6 26.1 0.00 0.75 0.00 81 997.1
20260509061017 54 318 16.5 26.1 0.00 0.75 0.00 83 997.2
20260509060032 54 327 13.0 22.6 0.00 0.77 0.00 83 997.2
20260509055026 55 321 19.1 28.7 0.00 0.77 0.00 83 997.1
20260509054021 55 322 13.0 20.0 0.00 0.78 0.00 82 997.1
20260509053036 55 324 13.9 24.3 0.00 0.78 0.00 82 997.1
20260509052030 55 336 13.9 22.6 0.00 0.78 0.00 82 997.2
20260509051025 55 329 13.0 21.7 0.00 0.78 0.00 82 997.2
20260509050019 55 333 13.0 20.9 0.00 0.78 0.00 82 997.0
20260509045034 56 334 13.9 23.5 0.00 0.78 0.00 80 996.9
20260509044028 56 318 15.6 24.3 0.00 0.78 0.00 80 997.1
20260509043022 57 312 14.8 24.3 0.00 0.78 0.00 79 997.2
20260509042018 57 306 14.8 25.2 0.00 0.78 0.00 79 997.5
20260509041033 57 309 15.6 26.1 0.00 0.78 0.00 79 997.5
20260509040028 57 302 13.0 23.5 0.00 0.78 0.00 81 997.5
20260509035043 57 317 10.4 17.4 0.00 0.78 0.00 82 997.7
20260509034018 57 326 9.6 17.4 0.00 0.78 0.00 82 997.6
20260509033033 57 325 9.6 17.4 0.00 0.78 0.00 81 997.5
20260509032028 57 337 9.6 17.4 0.00 0.78 0.00 80 997.5
20260509031023 58 328 10.4 18.2 0.00 0.78 0.00 78 997.4
20260509030018 59 312 12.2 22.6 0.00 0.78 0.00 77 997.1
20260509025033 60 310 13.0 21.7 0.00 0.78 0.00 75 997.3
20260509024027 61 311 10.4 17.4 0.00 0.78 0.00 76 997.4
20260509023022 60 303 12.2 25.2 0.00 0.78 0.00 77 997.4
20260509022035 59 306 11.3 23.5 0.00 0.78 0.00 80 997.5
20260509021050 58 306 15.6 23.5 0.00 0.78 0.00 80 997.5
20260509020025 58 305 15.6 26.9 0.00 0.78 0.00 80 997.6
20260509015020 58 305 15.6 24.3 0.00 0.78 0.00 80 997.4
20260509014036 58 308 16.5 28.7 0.00 0.78 0.00 79 997.6
20260509013030 58 305 16.5 26.9 0.00 0.78 0.00 79 997.8
20260509012025 58 308 13.9 22.6 0.00 0.78 0.00 80 997.5
20260509011041 57 313 16.5 32.2 0.00 0.78 0.00 81 997.1
20260509010035 57 313 15.6 27.8 0.00 0.78 0.00 82 997.3
20260509005030 57 313 13.9 20.9 0.00 0.78 0.00 83 997.5
20260509004025 57 308 13.0 24.3 0.00 0.78 0.00 83 997.7
20260509003040 57 308 17.4 29.5 0.00 0.78 0.00 82 997.6
20260509002033 58 305 19.1 33.9 0.00 0.78 0.00 81 997.8
20260509001027 58 307 20.9 39.1 0.00 0.78 0.00 81 997.9
20260509000021 58 312 18.2 30.4 0.00 0.78 0.00 81 998.0
20260508235016 59 311 22.6 39.1 0.00 0.78 0.00 80 998.0
20260508234051 59 308 22.6 46.1 0.00 0.78 0.00 82 998.0
20260508233026 58 301 20.0 31.3 0.00 0.78 0.00 82 997.9
20260508232021 58 307 20.9 33.9 0.00 0.78 0.00 83 997.8
20260508231016 58 328 14.8 26.1 0.00 0.78 0.00 83 997.8
20260508230031 58 312 19.1 31.3 0.00 0.78 0.00 82 998.0
20260508225026 58 320 18.2 30.4 0.00 0.78 0.00 83 998.1
20260508224021 58 301 19.1 40.8 0.00 0.78 0.00 82 998.1
20260508223016 58 302 25.2 46.1 0.00 0.78 0.00 82 998.3
20260508222031 58 313 23.5 38.2 0.00 0.78 0.00 82 998.4
20260508221026 58 303 20.9 37.4 0.00 0.78 0.00 82 998.4
20260508220021 58 314 15.6 29.5 0.00 0.78 0.00 81 998.4
20260508215017 58 309 16.5 33.9 0.00 0.78 0.00 83 998.5
20260508214032 57 311 20.0 37.4 0.00 0.78 0.00 82 998.6
20260508213047 57 308 22.6 40.0 0.00 0.78 0.00 83 999.0
20260508212022 57 318 18.2 35.6 0.00 0.78 0.00 83 999.1
20260508211017 57 306 17.4 35.6 0.00 0.78 0.00 81 999.2
20260508210052 57 308 21.7 33.9 0.00 0.79 0.00 83 999.0
20260508205027 57 307 18.2 34.8 0.00 0.80 0.00 84 999.0
20260508204022 56 317 20.0 33.0 0.00 0.80 0.00 85 998.6
20260508203017 57 327 15.6 29.5 0.00 0.80 0.00 82 998.4
20260508202032 57 322 23.5 41.7 0.00 0.81 0.00 80 998.3
20260508201027 57 305 24.3 40.0 0.00 0.81 0.00 79 998.6
20260508200023 57 303 28.7 40.0 0.00 0.83 0.00 79 998.3
20260508195018 57 311 21.7 36.5 0.00 0.85 0.00 81 997.1
20260508194033 57 327 21.7 36.5 0.00 0.86 0.00 84 996.0
20260508193028 57 329 24.3 39.1 0.00 0.87 0.00 84 995.9
20260508192023 57 329 21.7 36.5 0.00 0.88 0.00 82 996.1
20260508191018 57 322 24.3 40.0 0.00 0.92 0.00 81 996.3
20260508190033 56 315 24.3 40.8 0.00 0.93 0.00 81 996.5
20260508185028 56 326 22.6 44.3 0.00 0.93 0.00 82 996.6
20260508184023 57 314 24.3 44.3 0.00 0.93 0.00 83 997.0
20260508183018 57 313 23.5 46.1 0.00 0.93 0.00 82 997.0
20260508182033 57 320 28.7 55.6 0.00 0.93 0.00 82 997.0
20260508181049 57 307 28.7 51.3 0.00 0.93 0.00 82 997.2
20260508180044 57 310 22.6 40.0 0.00 0.94 0.00 83 997.3
20260508175018 57 326 25.2 40.8 0.00 0.94 0.00 84 997.3
20260508174033 57 327 22.6 39.1 0.00 0.94 0.00 84 997.4
20260508173028 57 324 21.7 44.3 0.00 0.95 0.00 85 997.3
20260508172024 57 321 24.3 42.6 0.00 0.95 0.00 85 997.1
20260508171019 57 319 26.1 42.6 0.00 0.97 0.00 84 997.4
20260508170034 57 316 24.3 46.9 0.00 1.00 0.00 84 997.6
20260508165029 57 321 23.5 37.4 0.00 1.01 0.00 85 997.5
20260508164024 57 315 26.1 41.7 0.00 1.01 0.00 86 997.8
20260508163039 57 308 22.6 44.3 0.00 1.02 0.00 87 997.8
20260508162054 57 314 19.1 31.3 0.00 1.02 0.00 87 997.8
20260508161029 57 318 19.1 30.4 0.00 1.03 0.00 87 997.9
20260508160024 57 325 20.9 46.1 0.00 1.03 0.00 86 998.0
20260508155039 57 323 26.1 47.8 0.00 1.03 0.00 86 998.3
20260508154034 57 314 21.7 43.4 0.00 1.03 0.00 87 998.4
20260508153030 57 320 26.1 45.2 0.00 1.03 0.00 87 998.5
20260508152024 57 322 27.8 43.4 0.00 1.03 0.00 86 998.3
20260508151020 57 315 24.3 39.1 0.00 1.04 0.00 85 998.1
20260508150035 57 314 26.1 39.1 0.00 1.04 0.00 85 998.2
20260508144045 57 327 24.3 44.3 0.00 1.07 0.00 86 998.0
20260508143020 57 309 27.8 48.7 0.00 1.08 0.00 86 998.5
20260508142035 57 308 26.1 39.1 0.00 1.09 0.00 86 998.5
20260508141031 57 311 28.7 58.2 0.00 1.11 0.00 86 998.4
20260508140025 57 314 23.5 44.3 0.00 1.13 0.00 86 998.5
20260508135021 57 309 25.2 40.0 0.00 1.14 0.00 85 998.6
20260508134016 57 303 28.7 47.8 0.00 1.16 0.00 85 998.6
20260508133031 57 306 25.2 40.8 0.00 1.18 0.00 84 998.7
20260508132026 58 301 33.0 53.9 0.00 1.20 0.00 83 998.7
20260508131021 58 305 31.3 50.4 0.00 1.20 0.00 83 998.8
20260508130016 58 303 27.8 52.1 0.00 1.20 0.00 81 998.7
20260508125031 58 299 31.3 47.8 0.00 1.20 0.00 81 998.7
20260508124026 58 298 30.4 56.5 0.00 1.21 0.00 83 998.7
20260508123021 58 309 31.3 46.1 0.00 1.22 0.00 85 998.6
20260508122016 57 303 30.4 51.3 0.00 1.22 0.00 87 998.6
20260508121031 57 303 26.1 44.3 0.00 1.23 0.00 87 998.5
20260508120026 57 307 26.1 47.8 0.00 1.23 1.23 87 998.6
20260508115021 57 305 28.7 51.3 0.00 1.23 1.23 87 998.7
20260508114037 57 301 25.2 40.8 0.00 1.23 1.23 88 998.8
20260508113031 57 316 24.3 40.0 0.00 1.23 1.23 88 998.8
20260508112027 57 308 22.6 41.7 0.00 1.23 1.23 88 999.0
20260508111042 56 315 21.7 37.4 0.00 1.23 1.23 88 999.2
20260508110017 56 325 21.7 41.7 0.00 1.23 1.23 90 999.1
20260508105032 56 310 20.9 40.8 0.00 1.23 1.23 90 999.4
20260508104027 56 314 26.9 44.3 0.00 1.23 1.23 90 999.8
20260508103022 56 308 21.7 33.9 0.01 1.23 1.23 91 999.8